Wetterdaten: Mittwoch, 29.12.2010
Datum Zeit Temp. A. Feuchte A. Luftdruck Regen Wind Richtung Richtung Sonnenschein UV Solar Windben
29.12.2010 00:00 -3,7 C 89 % 1022,4 hPa 0,0 mm 6,4 km/h (2 Bft) O 90 0 min 0 UV-I 0 W/m 14,5 km/h (3 Bft)
29.12.2010 00:10 -3,7 C 89 % 1022,2 hPa 0,0 mm 6,4 km/h (2 Bft) O-SO 112 0 min 0 UV-I 0 W/m 11,3 km/h (2 Bft)
29.12.2010 00:20 -3,7 C 89 % 1022,2 hPa 0,0 mm 4,8 km/h (1 Bft) O-SO 112 0 min 0 UV-I 0 W/m 11,3 km/h (2 Bft)
29.12.2010 00:30 -3,7 C 89 % 1022,2 hPa 0,0 mm 4,8 km/h (1 Bft) O-SO 112 0 min 0 UV-I 0 W/m 14,5 km/h (3 Bft)
29.12.2010 00:40 -3,7 C 89 % 1022,2 hPa 0,0 mm 6,4 km/h (2 Bft) O 90 0 min 0 UV-I 0 W/m 11,3 km/h (2 Bft)
29.12.2010 00:50 -3,7 C 89 % 1022,2 hPa 0,0 mm 3,2 km/h (1 Bft) O-SO 112 0 min 0 UV-I 0 W/m 12,9 km/h (3 Bft)
29.12.2010 01:00 -3,7 C 89 % 1022,2 hPa 0,0 mm 4,8 km/h (1 Bft) O-SO 112 0 min 0 UV-I 0 W/m 9,7 km/h (2 Bft)
29.12.2010 01:10 -3,7 C 89 % 1022,3 hPa 0,0 mm 4,8 km/h (1 Bft) O 90 0 min 0 UV-I 0 W/m 9,7 km/h (2 Bft)
29.12.2010 01:20 -3,7 C 89 % 1022,3 hPa 0,0 mm 4,8 km/h (1 Bft) O 90 0 min 0 UV-I 0 W/m 12,9 km/h (3 Bft)
29.12.2010 01:30 -3,8 C 89 % 1022,2 hPa 0,0 mm 4,8 km/h (1 Bft) O-SO 112 0 min 0 UV-I 0 W/m 11,3 km/h (2 Bft)
29.12.2010 01:40 -3,8 C 89 % 1022,3 hPa 0,0 mm 4,8 km/h (1 Bft) O-SO 112 0 min 0 UV-I 0 W/m 11,3 km/h (2 Bft)
29.12.2010 01:50 -3,8 C 89 % 1022,5 hPa 0,0 mm 3,2 km/h (1 Bft) O-SO 112 0 min 0 UV-I 0 W/m 11,3 km/h (2 Bft)
29.12.2010 02:00 -3,9 C 89 % 1022,6 hPa 0,0 mm 3,2 km/h (1 Bft) O-SO 112 0 min 0 UV-I 0 W/m 8,0 km/h (2 Bft)
29.12.2010 02:10 -3,9 C 89 % 1022,7 hPa 0,0 mm 3,2 km/h (1 Bft) O-SO 112 0 min 0 UV-I 0 W/m 8,0 km/h (2 Bft)
29.12.2010 02:20 -4,0 C 89 % 1022,7 hPa 0,0 mm 3,2 km/h (1 Bft) O-SO 112 0 min 0 UV-I 0 W/m 8,0 km/h (2 Bft)
29.12.2010 02:30 -4,1 C 89 % 1022,8 hPa 0,0 mm 3,2 km/h (1 Bft) O-SO 112 0 min 0 UV-I 0 W/m 9,7 km/h (2 Bft)
29.12.2010 02:40 -4,1 C 89 % 1022,8 hPa 0,0 mm 3,2 km/h (1 Bft) O-SO 112 0 min 0 UV-I 0 W/m 9,7 km/h (2 Bft)
29.12.2010 02:50 -4,2 C 88 % 1022,8 hPa 0,0 mm 3,2 km/h (1 Bft) O-SO 112 0 min 0 UV-I 0 W/m 8,0 km/h (2 Bft)
29.12.2010 03:00 -4,2 C 89 % 1022,8 hPa 0,0 mm 3,2 km/h (1 Bft) O-SO 112 0 min 0 UV-I 0 W/m 9,7 km/h (2 Bft)
29.12.2010 03:10 -4,2 C 89 % 1022,8 hPa 0,0 mm 3,2 km/h (1 Bft) O-SO 112 0 min 0 UV-I 0 W/m 9,7 km/h (2 Bft)
29.12.2010 03:20 -4,1 C 89 % 1022,8 hPa 0,0 mm 4,8 km/h (1 Bft) O-SO 112 0 min 0 UV-I 0 W/m 8,0 km/h (2 Bft)
29.12.2010 03:30 -4,1 C 89 % 1022,8 hPa 0,0 mm 4,8 km/h (1 Bft) O-SO 112 0 min 0 UV-I 0 W/m 9,7 km/h (2 Bft)
29.12.2010 03:40 -4,1 C 89 % 1022,6 hPa 0,0 mm 4,8 km/h (1 Bft) O-SO 112 0 min 0 UV-I 0 W/m 9,7 km/h (2 Bft)
29.12.2010 03:50 -4,1 C 89 % 1022,6 hPa 0,0 mm 3,2 km/h (1 Bft) O-SO 112 0 min 0 UV-I 0 W/m 6,4 km/h (2 Bft)
29.12.2010 04:00 -4,0 C 89 % 1022,6 hPa 0,0 mm 1,6 km/h (1 Bft) O-SO 112 0 min 0 UV-I 0 W/m 8,0 km/h (2 Bft)
29.12.2010 04:10 -4,0 C 89 % 1022,7 hPa 0,0 mm 1,6 km/h (1 Bft) O-SO 112 0 min 0 UV-I 0 W/m 6,4 km/h (2 Bft)
29.12.2010 04:20 -4,0 C 89 % 1022,8 hPa 0,0 mm 1,6 km/h (1 Bft) O-SO 112 0 min 0 UV-I 0 W/m 6,4 km/h (2 Bft)
29.12.2010 04:30 -4,0 C 89 % 1022,9 hPa 0,0 mm 0,0 km/h (0 Bft) O-SO 112 0 min 0 UV-I 0 W/m 3,2 km/h (1 Bft)
29.12.2010 04:40 -4,0 C 89 % 1022,7 hPa 0,0 mm 1,6 km/h (1 Bft) O-SO 112 0 min 0 UV-I 0 W/m 4,8 km/h (1 Bft)
29.12.2010 04:50 -4,1 C 89 % 1022,7 hPa 0,0 mm 1,6 km/h (1 Bft) O 90 0 min 0 UV-I 0 W/m 4,8 km/h (1 Bft)
29.12.2010 05:00 -4,1 C 89 % 1022,7 hPa 0,0 mm 1,6 km/h (1 Bft) O-SO 112 0 min 0 UV-I 0 W/m 8,0 km/h (2 Bft)
29.12.2010 05:10 -4,1 C 88 % 1022,6 hPa 0,0 mm 1,6 km/h (1 Bft) O 90 0 min 0 UV-I 0 W/m 6,4 km/h (2 Bft)
29.12.2010 05:20 -4,2 C 89 % 1022,6 hPa 0,0 mm 3,2 km/h (1 Bft) O-SO 112 0 min 0 UV-I 0 W/m 6,4 km/h (2 Bft)
29.12.2010 05:30 -4,2 C 88 % 1022,6 hPa 0,0 mm 1,6 km/h (1 Bft) O-SO 112 0 min 0 UV-I 0 W/m 6,4 km/h (2 Bft)
29.12.2010 05:40 -4,3 C 88 % 1022,6 hPa 0,0 mm 1,6 km/h (1 Bft) O-SO 112 0 min 0 UV-I 0 W/m 3,2 km/h (1 Bft)
29.12.2010 05:50 -4,4 C 88 % 1022,7 hPa 0,0 mm 0,0 km/h (0 Bft) O-SO 112 0 min 0 UV-I 0 W/m 4,8 km/h (1 Bft)
29.12.2010 06:00 -4,5 C 88 % 1022,8 hPa 0,0 mm 0,0 km/h (0 Bft) O-SO 112 0 min 0 UV-I 0 W/m 3,2 km/h (1 Bft)
29.12.2010 06:10 -4,6 C 88 % 1022,6 hPa 0,0 mm 0,0 km/h (0 Bft) O-SO 112 0 min 0 UV-I 0 W/m 4,8 km/h (1 Bft)
29.12.2010 06:20 -4,7 C 88 % 1022,7 hPa 0,0 mm 0,0 km/h (0 Bft) O-SO 112 0 min 0 UV-I 0 W/m 4,8 km/h (1 Bft)
29.12.2010 06:30 -4,9 C 88 % 1022,6 hPa 0,0 mm 1,6 km/h (1 Bft) O-SO 112 0 min 0 UV-I 0 W/m 4,8 km/h (1 Bft)
29.12.2010 06:40 -5,1 C 88 % 1022,6 hPa 0,0 mm 0,0 km/h (0 Bft) O-SO 112 0 min 0 UV-I 0 W/m 4,8 km/h (1 Bft)
29.12.2010 06:50 -5,2 C 88 % 1022,6 hPa 0,0 mm 1,6 km/h (1 Bft) O-SO 112 0 min 0 UV-I 0 W/m 6,4 km/h (2 Bft)
29.12.2010 07:00 -5,3 C 88 % 1022,6 hPa 0,0 mm 1,6 km/h (1 Bft) O-SO 112 0 min 0 UV-I 0 W/m 4,8 km/h (1 Bft)
29.12.2010 07:10 -5,4 C 88 % 1022,5 hPa 0,0 mm 1,6 km/h (1 Bft) O-SO 112 0 min 0 UV-I 0 W/m 4,8 km/h (1 Bft)
29.12.2010 07:20 -5,5 C 88 % 1022,6 hPa 0,0 mm 1,6 km/h (1 Bft) O-SO 112 0 min 0 UV-I 0 W/m 6,4 km/h (2 Bft)
29.12.2010 07:30 -5,6 C 88 % 1022,6 hPa 0,0 mm 1,6 km/h (1 Bft) O-SO 112 0 min 0 UV-I 0 W/m 6,4 km/h (2 Bft)
29.12.2010 07:40 -5,6 C 88 % 1022,6 hPa 0,0 mm 1,6 km/h (1 Bft) O-SO 112 0 min 0 UV-I 0 W/m 6,4 km/h (2 Bft)
29.12.2010 07:50 -5,7 C 88 % 1022,7 hPa 0,0 mm 3,2 km/h (1 Bft) O-SO 112 0 min 0 UV-I 0 W/m 6,4 km/h (2 Bft)
29.12.2010 08:00 -5,7 C 88 % 1022,8 hPa 0,0 mm 1,1 km/h (1 Bft) O-SO 111 0 min 0 UV-I 0 W/m 3,2 km/h (1 Bft)
29.12.2010 08:10 -5,7 C 88 % 1022,9 hPa 0,0 mm 1,1 km/h (1 Bft) O 100 0 min 0 UV-I 0 W/m 6,4 km/h (2 Bft)
29.12.2010 08:20 -5,7 C 88 % 1023,1 hPa 0,0 mm 0,0 km/h (0 Bft) O 90 0 min 0 UV-I 0 W/m 4,8 km/h (1 Bft)
29.12.2010 08:30 -5,8 C 88 % 1023,1 hPa 0,0 mm 1,6 km/h (1 Bft) O 90 0 min 0 UV-I 5 W/m 4,8 km/h (1 Bft)
29.12.2010 08:40 -5,8 C 88 % 1023,3 hPa 0,0 mm 1,6 km/h (1 Bft) O-SO 112 0 min 0 UV-I 5 W/m 4,8 km/h (1 Bft)
29.12.2010 08:50 -5,8 C 88 % 1023,4 hPa 0,0 mm 0,0 km/h (0 Bft) O-SO 112 0 min 0 UV-I 11 W/m 3,2 km/h (1 Bft)
29.12.2010 09:00 -5,8 C 88 % 1023,4 hPa 0,0 mm 0,0 km/h (0 Bft) O-SO 112 0 min 0 UV-I 18 W/m 3,2 km/h (1 Bft)
29.12.2010 09:10 -5,7 C 89 % 1023,4 hPa 0,0 mm 1,6 km/h (1 Bft) O-SO 112 0 min 0 UV-I 26 W/m 8,0 km/h (2 Bft)
29.12.2010 09:20 -5,6 C 89 % 1023,6 hPa 0,0 mm 1,6 km/h (1 Bft) O 90 0 min 0 UV-I 35 W/m 6,4 km/h (2 Bft)
29.12.2010 09:30 -5,4 C 89 % 1023,8 hPa 0,0 mm 1,6 km/h (1 Bft) O-SO 112 0 min 0 UV-I 44 W/m 9,7 km/h (2 Bft)
29.12.2010 09:40 -5,3 C 89 % 1023,8 hPa 0,0 mm 3,2 km/h (1 Bft) O-SO 112 0 min 0 UV-I 46 W/m 8,0 km/h (2 Bft)
29.12.2010 09:50 -5,1 C 90 % 1023,6 hPa 0,0 mm 3,2 km/h (1 Bft) O 90 0 min 0 UV-I 51 W/m 9,7 km/h (2 Bft)
29.12.2010 10:00 -4,8 C 90 % 1023,8 hPa 0,0 mm 3,2 km/h (1 Bft) O 90 0 min 0 UV-I 69 W/m 9,7 km/h (2 Bft)
29.12.2010 10:10 -4,6 C 90 % 1023,7 hPa 0,0 mm 3,2 km/h (1 Bft) O-SO 112 10 min 0 UV-I 132 W/m 9,7 km/h (2 Bft)
29.12.2010 10:20 -4,4 C 90 % 1023,8 hPa 0,0 mm 3,2 km/h (1 Bft) O-SO 112 10 min 0 UV-I 146 W/m 9,7 km/h (2 Bft)
29.12.2010 10:30 -4,1 C 90 % 1023,8 hPa 0,0 mm 3,2 km/h (1 Bft) O 90 10 min 0 UV-I 149 W/m 9,7 km/h (2 Bft)
29.12.2010 10:40 -3,6 C 91 % 1023,9 hPa 0,0 mm 4,8 km/h (1 Bft) O 90 10 min 0 UV-I 134 W/m 11,3 km/h (2 Bft)
29.12.2010 10:50 -3,3 C 91 % 1023,8 hPa 0,0 mm 3,2 km/h (1 Bft) O 90 0 min 0 UV-I 104 W/m 9,7 km/h (2 Bft)
29.12.2010 11:00 -3,1 C 91 % 1023,8 hPa 0,0 mm 3,2 km/h (1 Bft) O 90 0 min 0 UV-I 105 W/m 8,0 km/h (2 Bft)
29.12.2010 11:10 -2,8 C 91 % 1023,7 hPa 0,0 mm 1,6 km/h (1 Bft) O-SO 112 0 min 0 UV-I 118 W/m 6,4 km/h (2 Bft)
29.12.2010 11:20 -2,6 C 91 % 1023,6 hPa 0,0 mm 3,2 km/h (1 Bft) O-SO 112 0 min 1 UV-I 132 W/m 8,0 km/h (2 Bft)
29.12.2010 11:30 -2,3 C 91 % 1023,5 hPa 0,0 mm 3,2 km/h (1 Bft) O 90 0 min 1 UV-I 135 W/m 9,7 km/h (2 Bft)
29.12.2010 11:40 -2,1 C 91 % 1023,4 hPa 0,0 mm 1,6 km/h (1 Bft) O 90 0 min 1 UV-I 127 W/m 6,4 km/h (2 Bft)
29.12.2010 11:50 -1,9 C 90 % 1023,4 hPa 0,0 mm 3,2 km/h (1 Bft) O 90 0 min 1 UV-I 118 W/m 9,7 km/h (2 Bft)
29.12.2010 12:00 -1,8 C 91 % 1023,4 hPa 0,0 mm 1,6 km/h (1 Bft) O 90 0 min 1 UV-I 127 W/m 6,4 km/h (2 Bft)
29.12.2010 12:10 -1,7 C 90 % 1023,5 hPa 0,0 mm 1,6 km/h (1 Bft) O-SO 112 0 min 1 UV-I 128 W/m 6,4 km/h (2 Bft)
29.12.2010 12:20 -1,5 C 90 % 1023,4 hPa 0,0 mm 0,0 km/h (0 Bft) O-SO 112 0 min 1 UV-I 127 W/m 4,8 km/h (1 Bft)
29.12.2010 12:30 -1,4 C 90 % 1023,5 hPa 0,0 mm 0,0 km/h (0 Bft) O-SO 112 10 min 1 UV-I 167 W/m 4,8 km/h (1 Bft)
29.12.2010 12:40 -1,3 C 90 % 1023,5 hPa 0,0 mm 0,0 km/h (0 Bft) O-SO 112 10 min 1 UV-I 183 W/m 3,2 km/h (1 Bft)
29.12.2010 12:50 -1,3 C 90 % 1023,5 hPa 0,0 mm 1,6 km/h (1 Bft) O-SO 112 0 min 1 UV-I 134 W/m 4,8 km/h (1 Bft)
29.12.2010 13:00 -1,2 C 90 % 1023,4 hPa 0,0 mm 1,6 km/h (1 Bft) O-SO 112 0 min 1 UV-I 128 W/m 4,8 km/h (1 Bft)
29.12.2010 13:10 -1,1 C 90 % 1023,3 hPa 0,0 mm 1,6 km/h (1 Bft) O-SO 112 0 min 1 UV-I 121 W/m 4,8 km/h (1 Bft)
29.12.2010 13:20 -0,9 C 89 % 1023,3 hPa 0,0 mm 1,6 km/h (1 Bft) O 90 0 min 0 UV-I 109 W/m 6,4 km/h (2 Bft)
29.12.2010 13:30 -0,8 C 89 % 1023,2 hPa 0,0 mm 3,2 km/h (1 Bft) O-SO 112 0 min 0 UV-I 114 W/m 8,0 km/h (2 Bft)
29.12.2010 13:40 -0,7 C 89 % 1023,1 hPa 0,0 mm 3,2 km/h (1 Bft) O-SO 112 0 min 0 UV-I 118 W/m 8,0 km/h (2 Bft)
29.12.2010 13:50 -0,6 C 89 % 1023,1 hPa 0,0 mm 1,6 km/h (1 Bft) O 90 0 min 0 UV-I 118 W/m 6,4 km/h (2 Bft)
29.12.2010 14:00 -0,4 C 88 % 1023,0 hPa 0,0 mm 1,6 km/h (1 Bft) O 90 0 min 0 UV-I 105 W/m 4,8 km/h (1 Bft)
29.12.2010 14:10 -0,4 C 88 % 1022,9 hPa 0,0 mm 1,6 km/h (1 Bft) O-SO 112 10 min 0 UV-I 120 W/m 6,4 km/h (2 Bft)
29.12.2010 14:20 -0,3 C 88 % 1022,9 hPa 0,0 mm 1,6 km/h (1 Bft) O-SO 112 10 min 0 UV-I 120 W/m 4,8 km/h (1 Bft)
29.12.2010 14:30 -0,2 C 87 % 1022,9 hPa 0,0 mm 1,6 km/h (1 Bft) O-SO 112 0 min 0 UV-I 90 W/m 4,8 km/h (1 Bft)
29.12.2010 14:40 -0,2 C 87 % 1022,9 hPa 0,0 mm 0,0 km/h (0 Bft) O-SO 112 0 min 0 UV-I 90 W/m 3,2 km/h (1 Bft)
29.12.2010 14:50 0,0 C 87 % 1022,8 hPa 0,0 mm 0,0 km/h (0 Bft) O-SO 112 10 min 0 UV-I 111 W/m 4,8 km/h (1 Bft)
29.12.2010 15:00 0,1 C 87 % 1022,8 hPa 0,0 mm 1,6 km/h (1 Bft) O 90 10 min 0 UV-I 111 W/m 6,4 km/h (2 Bft)
29.12.2010 15:10 0,2 C 86 % 1022,8 hPa 0,0 mm 1,6 km/h (1 Bft) O 90 0 min 0 UV-I 46 W/m 4,8 km/h (1 Bft)
29.12.2010 15:20 0,2 C 86 % 1022,8 hPa 0,0 mm 1,6 km/h (1 Bft) O 90 10 min 0 UV-I 105 W/m 6,4 km/h (2 Bft)
29.12.2010 15:30 0,1 C 85 % 1022,9 hPa 0,0 mm 0,0 km/h (0 Bft) O 90 10 min 0 UV-I 116 W/m 3,2 km/h (1 Bft)
29.12.2010 15:40 -0,2 C 85 % 1022,9 hPa 0,0 mm 0,0 km/h (0 Bft) O 90 0 min 0 UV-I 26 W/m 4,8 km/h (1 Bft)
29.12.2010 15:50 -0,3 C 85 % 1023,0 hPa 0,0 mm 1,6 km/h (1 Bft) O 90 0 min 0 UV-I 23 W/m 4,8 km/h (1 Bft)
29.12.2010 16:00 -0,7 C 85 % 1023,1 hPa 0,0 mm 0,4 km/h (0 Bft) O 97 0 min 0 UV-I 13 W/m 3,2 km/h (1 Bft)
29.12.2010 16:10 -0,7 C 84 % 1023,3 hPa 0,0 mm 0,0 km/h (0 Bft) O 90 0 min 0 UV-I 12 W/m 3,2 km/h (1 Bft)
29.12.2010 16:20 -1,0 C 84 % 1023,3 hPa 0,0 mm 1,6 km/h (1 Bft) O 90 0 min 0 UV-I 9 W/m 4,8 km/h (1 Bft)
29.12.2010 16:30 -1,2 C 84 % 1023,5 hPa 0,0 mm 0,0 km/h (0 Bft) O 90 0 min 0 UV-I 0 W/m 4,8 km/h (1 Bft)
29.12.2010 16:40 -1,4 C 84 % 1023,5 hPa 0,0 mm 0,0 km/h (0 Bft) O 90 0 min 0 UV-I 0 W/m 4,8 km/h (1 Bft)
29.12.2010 16:50 -1,6 C 85 % 1023,5 hPa 0,0 mm 1,6 km/h (1 Bft) O 90 0 min 0 UV-I 0 W/m 4,8 km/h (1 Bft)
29.12.2010 17:00 -1,7 C 85 % 1023,5 hPa 0,0 mm 1,6 km/h (1 Bft) O-SO 112 0 min 0 UV-I 0 W/m 6,4 km/h (2 Bft)
29.12.2010 17:10 -1,8 C 86 % 1023,6 hPa 0,0 mm 1,6 km/h (1 Bft) O 90 0 min 0 UV-I 0 W/m 6,4 km/h (2 Bft)
29.12.2010 17:20 -1,8 C 86 % 1023,5 hPa 0,0 mm 1,6 km/h (1 Bft) O-SO 112 0 min 0 UV-I 0 W/m 4,8 km/h (1 Bft)
29.12.2010 17:30 -1,8 C 86 % 1023,5 hPa 0,0 mm 1,6 km/h (1 Bft) O-SO 112 0 min 0 UV-I 0 W/m 6,4 km/h (2 Bft)
29.12.2010 17:40 -1,8 C 87 % 1023,4 hPa 0,0 mm 1,6 km/h (1 Bft) O-SO 112 0 min 0 UV-I 0 W/m 4,8 km/h (1 Bft)
29.12.2010 17:50 -1,8 C 87 % 1023,4 hPa 0,0 mm 1,6 km/h (1 Bft) O-SO 112 0 min 0 UV-I 0 W/m 6,4 km/h (2 Bft)
29.12.2010 18:00 -1,8 C 87 % 1023,4 hPa 0,0 mm 1,6 km/h (1 Bft) O-SO 112 0 min 0 UV-I 0 W/m 6,4 km/h (2 Bft)
29.12.2010 18:10 -1,9 C 87 % 1023,5 hPa 0,0 mm 0,0 km/h (0 Bft) O-SO 112 0 min 0 UV-I 0 W/m 1,6 km/h (1 Bft)
29.12.2010 18:20 -1,9 C 87 % 1023,7 hPa 0,0 mm 0,0 km/h (0 Bft) N 0 0 min 0 UV-I 0 W/m 0,0 km/h (0 Bft)
29.12.2010 18:30 -2,1 C 87 % 1023,7 hPa 0,0 mm 0,0 km/h (0 Bft) N 0 0 min 0 UV-I 0 W/m 0,0 km/h (0 Bft)
29.12.2010 18:40 -2,2 C 87 % 1023,7 hPa 0,0 mm 0,0 km/h (0 Bft) N 0 0 min 0 UV-I 0 W/m 0,0 km/h (0 Bft)
29.12.2010 18:50 -2,3 C 87 % 1023,6 hPa 0,0 mm 0,0 km/h (0 Bft) N 0 0 min 0 UV-I 0 W/m 0,0 km/h (0 Bft)
29.12.2010 19:00 -2,4 C 86 % 1023,7 hPa 0,0 mm 0,0 km/h (0 Bft) N 0 0 min 0 UV-I 0 W/m 0,0 km/h (0 Bft)
29.12.2010 19:10 -2,7 C 86 % 1023,7 hPa 0,0 mm 0,0 km/h (0 Bft) N 0 0 min 0 UV-I 0 W/m 0,0 km/h (0 Bft)
29.12.2010 19:20 -2,9 C 86 % 1023,9 hPa 0,0 mm 0,0 km/h (0 Bft) N 0 0 min 0 UV-I 0 W/m 0,0 km/h (0 Bft)
29.12.2010 19:30 -3,1 C 86 % 1023,8 hPa 0,0 mm 0,0 km/h (0 Bft) N 0 0 min 0 UV-I 0 W/m 0,0 km/h (0 Bft)
29.12.2010 19:40 -3,3 C 86 % 1023,8 hPa 0,0 mm 0,0 km/h (0 Bft) N 0 0 min 0 UV-I 0 W/m 0,0 km/h (0 Bft)
29.12.2010 19:50 -3,6 C 86 % 1024,0 hPa 0,0 mm 0,0 km/h (0 Bft) N 0 0 min 0 UV-I 0 W/m 0,0 km/h (0 Bft)
29.12.2010 20:00 -3,8 C 86 % 1024,0 hPa 0,0 mm 0,0 km/h (0 Bft) N 0 0 min 0 UV-I 0 W/m 0,0 km/h (0 Bft)
29.12.2010 20:10 -3,9 C 86 % 1024,0 hPa 0,0 mm 0,0 km/h (0 Bft) N 0 0 min 0 UV-I 0 W/m 0,0 km/h (0 Bft)
29.12.2010 20:20 -4,2 C 86 % 1024,1 hPa 0,0 mm 0,0 km/h (0 Bft) N 0 0 min 0 UV-I 0 W/m 0,0 km/h (0 Bft)
29.12.2010 20:30 -4,3 C 86 % 1024,1 hPa 0,0 mm 0,0 km/h (0 Bft) N 0 0 min 0 UV-I 0 W/m 0,0 km/h (0 Bft)
29.12.2010 20:40 -4,4 C 86 % 1024,2 hPa 0,0 mm 0,0 km/h (0 Bft) N 0 0 min 0 UV-I 0 W/m 0,0 km/h (0 Bft)
29.12.2010 20:50 -4,6 C 86 % 1024,2 hPa 0,0 mm 0,0 km/h (0 Bft) N 0 0 min 0 UV-I 0 W/m 0,0 km/h (0 Bft)
29.12.2010 21:00 -4,7 C 86 % 1024,3 hPa 0,0 mm 0,0 km/h (0 Bft) N 0 0 min 0 UV-I 0 W/m 0,0 km/h (0 Bft)
29.12.2010 21:10 -4,8 C 86 % 1024,3 hPa 0,0 mm 0,0 km/h (0 Bft) N 0 0 min 0 UV-I 0 W/m 0,0 km/h (0 Bft)
29.12.2010 21:20 -4,9 C 87 % 1024,3 hPa 0,0 mm 0,0 km/h (0 Bft) N 0 0 min 0 UV-I 0 W/m 0,0 km/h (0 Bft)
29.12.2010 21:30 -5,0 C 86 % 1024,5 hPa 0,0 mm 0,0 km/h (0 Bft) N 0 0 min 0 UV-I 0 W/m 0,0 km/h (0 Bft)
29.12.2010 21:40 -5,2 C 87 % 1024,6 hPa 0,0 mm 0,0 km/h (0 Bft) O-SO 120 0 min 0 UV-I 0 W/m 0,0 km/h (0 Bft)
29.12.2010 21:50 -5,2 C 87 % 1024,6 hPa 0,0 mm 0,0 km/h (0 Bft) O-SO 120 0 min 0 UV-I 0 W/m 0,0 km/h (0 Bft)
29.12.2010 22:00 -5,3 C 87 % 1024,6 hPa 0,0 mm 0,0 km/h (0 Bft) O-SO 120 0 min 0 UV-I 0 W/m 0,0 km/h (0 Bft)
29.12.2010 22:10 -5,4 C 87 % 1024,8 hPa 0,0 mm 0,0 km/h (0 Bft) O-SO 119 0 min 0 UV-I 0 W/m 0,0 km/h (0 Bft)
29.12.2010 22:20 -5,5 C 87 % 1024,7 hPa 0,0 mm 0,0 km/h (0 Bft) O-SO 120 0 min 0 UV-I 0 W/m 0,0 km/h (0 Bft)
29.12.2010 22:30 -5,6 C 87 % 1024,8 hPa 0,0 mm 0,0 km/h (0 Bft) O-SO 119 0 min 0 UV-I 0 W/m 0,0 km/h (0 Bft)
29.12.2010 22:40 -5,6 C 87 % 1024,8 hPa 0,0 mm 0,0 km/h (0 Bft) O-SO 120 0 min 0 UV-I 0 W/m 0,0 km/h (0 Bft)
29.12.2010 22:50 -5,7 C 87 % 1024,7 hPa 0,0 mm 0,0 km/h (0 Bft) O-SO 119 0 min 0 UV-I 0 W/m 0,0 km/h (0 Bft)
29.12.2010 23:00 -5,8 C 87 % 1024,7 hPa 0,0 mm 0,0 km/h (0 Bft) O-SO 119 0 min 0 UV-I 0 W/m 0,0 km/h (0 Bft)
29.12.2010 23:10 -5,8 C 87 % 1024,7 hPa 0,0 mm 0,0 km/h (0 Bft) O-SO 119 0 min 0 UV-I 0 W/m 0,0 km/h (0 Bft)
29.12.2010 23:20 -5,9 C 87 % 1024,7 hPa 0,0 mm 0,0 km/h (0 Bft) O-SO 119 0 min 0 UV-I 0 W/m 0,0 km/h (0 Bft)
29.12.2010 23:30 -6,0 C 87 % 1024,7 hPa 0,0 mm 0,0 km/h (0 Bft) O-SO 119 0 min 0 UV-I 0 W/m 0,0 km/h (0 Bft)
29.12.2010 23:40 -6,1 C 87 % 1024,6 hPa 0,0 mm 0,0 km/h (0 Bft) O-SO 119 0 min 0 UV-I 0 W/m 0,0 km/h (0 Bft)
29.12.2010 23:50 -6,2 C 87 % 1024,5 hPa 0,0 mm 0,0 km/h (0 Bft) N 0 0 min 0 UV-I 0 W/m 0,0 km/h (0 Bft)
_ Min-Zeit 23:50 16:10 00:10 - 04:30 - - - - - 18:20
Minimum _ -6,3 C 84 % 1022,2 hPa - 0,0 km/h (0 Bft) - - - - - 0,0 km/h (0 Bft)
_ Max-Zeit 15:00 10:40 22:10 00:00 00:00 - - 10:10 11:20 12:40 00:00
Maximum _ 0,2 C 91 % 1024,8 hPa 0,0 mm 6,4 km/h
O (2 Bft)
- - 10 min 1 UV-I 183 W/m 14,5 km/h
O-SO (3 Bft)
Durchschnitt _ -3,5 C 88 % 1023,3 hPa #0,0 mm 1,6 km/h (1 Bft) O-SO - #2:00 h 1 UV-I 91 W/m 5,3 km/h (1 Bft)